Previsão horária em Aberlady

Hoje, 12 Abril, Segunda-feira

Tempo Temperatura Precipitação Vento Pressão Humidade
00:00 -2°C° 0 mm 2 m/s 763 mmHg 76%
01:00 -2°C° 0 mm 2 m/s 763 mmHg 77%
02:00 -2°C° 0 mm 2 m/s 763 mmHg 77%
03:00 -2°C° 0 mm 2 m/s 763 mmHg 78%
04:00 -2°C° 0 mm 2 m/s 764 mmHg 77%
05:00 -2°C° 0 mm 2 m/s 764 mmHg 77%
06:00 -2°C° 0 mm 2 m/s 764 mmHg 77%
07:00 +1°C° 0 mm 2 m/s 764 mmHg 68%
08:00 +2°C° 0 mm 2 m/s 765 mmHg 60%
09:00 +4°C° 0 mm 2 m/s 765 mmHg 51%
10:00 +5°C° 0 mm 2 m/s 765 mmHg 46%
11:00 +6°C° 0 mm 2 m/s 765 mmHg 41%
12:00 +7°C° 0 mm 2 m/s 765 mmHg 36%
13:00 +7°C° 0 mm 2 m/s 765 mmHg 35%
14:00 +7°C° 0 mm 2 m/s 765 mmHg 34%
15:00 +8°C° 0 mm 2 m/s 765 mmHg 33%
16:00 +7°C° 0 mm 2 m/s 765 mmHg 38%
17:00 +7°C° 0 mm 2 m/s 765 mmHg 43%
18:00 +6°C° 0 mm 2 m/s 765 mmHg 48%
19:00 +4°C° 0 mm 2 m/s 766 mmHg 53%
20:00 +3°C° 0 mm 2 m/s 766 mmHg 58%
21:00 +1°C° 0 mm 2 m/s 767 mmHg 63%
22:00 +1°C° 0 mm 2 m/s 767 mmHg 66%
23:00 +1°C° 0 mm 2 m/s 767 mmHg 69%

Amanhã, 13 Abril, Terça-feira

Tempo Temperatura Precipitação Vento Pressão Humidade
00:00 -1°C° 0 mm 2 m/s 768 mmHg 72%
01:00 -1°C° 0 mm 2 m/s 768 mmHg 73%
02:00 -1°C° 0 mm 2 m/s 768 mmHg 74%
03:00 +1°C° 0 mm 1 m/s 768 mmHg 75%
04:00 +1°C° 0 mm 1 m/s 768 mmHg 75%
05:00 +1°C° 0 mm 1 m/s 768 mmHg 74%
06:00 +1°C° 0 mm 1 m/s 768 mmHg 73%
07:00 +3°C° 0 mm 1 m/s 769 mmHg 67%
08:00 +5°C° 0 mm 1 m/s 769 mmHg 61%
09:00 +6°C° 0 mm 1 m/s 769 mmHg 55%
10:00 +7°C° 0 mm 1 m/s 769 mmHg 52%
11:00 +8°C° 0 mm 1 m/s 769 mmHg 48%
12:00 +9°C° 0 mm 1 m/s 769 mmHg 44%
13:00 +9°C° 0 mm 2 m/s 768 mmHg 45%
14:00 +9°C° 0 mm 2 m/s 768 mmHg 45%
15:00 +9°C° 0 mm 2 m/s 768 mmHg 46%
16:00 +8°C° 0 mm 2 m/s 768 mmHg 52%
17:00 +7°C° 0 mm 2 m/s 768 mmHg 59%
18:00 +7°C° 0 mm 2 m/s 768 mmHg 65%
19:00 +6°C° 0 mm 2 m/s 768 mmHg 70%
20:00 +4°C° 0 mm 2 m/s 769 mmHg 74%
21:00 +3°C° 0 mm 2 m/s 769 mmHg 79%
22:00 +3°C° 0 mm 2 m/s 769 mmHg 81%
23:00 +3°C° 0 mm 1 m/s 769 mmHg 83%

Depois de amanhã, 14 Abril, Quarta-feira

Tempo Temperatura Precipitação Vento Pressão Humidade
00:00 +3°C° 0 mm 1 m/s 769 mmHg 85%
01:00 +3°C° 0 mm 1 m/s 769 mmHg 86%
02:00 +2°C° 0 mm 1 m/s 769 mmHg 87%
03:00 +2°C° 0 mm 1 m/s 770 mmHg 88%
04:00 +2°C° 0 mm 1 m/s 770 mmHg 88%
05:00 +3°C° 0 mm 1 m/s 770 mmHg 88%
06:00 +3°C° 0 mm 1 m/s 770 mmHg 87%
07:00 +4°C° 0 mm 1 m/s 770 mmHg 80%
08:00 +6°C° 0 mm 1 m/s 770 mmHg 72%
09:00 +7°C° 0 mm 0 m/s 770 mmHg 65%
10:00 +9°C° 0 mm 1 m/s 770 mmHg 62%
11:00 +10°C° 0 mm 1 m/s 770 mmHg 59%
12:00 +10°C° 0 mm 2 m/s 770 mmHg 55%
13:00 +10°C° 0 mm 2 m/s 770 mmHg 56%
14:00 +10°C° 0 mm 2 m/s 770 mmHg 56%
15:00 +9°C° 0 mm 3 m/s 770 mmHg 57%
16:00 +9°C° 0 mm 3 m/s 770 mmHg 60%
17:00 +8°C° 0 mm 3 m/s 770 mmHg 64%
18:00 +8°C° 0 mm 3 m/s 770 mmHg 68%
19:00 +6°C° 0 mm 2 m/s 770 mmHg 72%
20:00 +5°C° 0 mm 2 m/s 771 mmHg 76%
21:00 +4°C° 0 mm 2 m/s 771 mmHg 80%
22:00 +3°C° 0 mm 2 m/s 771 mmHg 80%
23:00 +4°C° 0 mm 1 m/s 771 mmHg 80%

15 Abril, Quinta-feira

Tempo Temperatura Precipitação Vento Pressão Humidade
00:00 +4°C° 0 mm 1 m/s 771 mmHg 80%
01:00 +4°C° 0 mm 1 m/s 771 mmHg 80%
02:00 +3°C° 0 mm 1 m/s 771 mmHg 80%
03:00 +3°C° 0 mm 1 m/s 771 mmHg 80%
04:00 +3°C° 0 mm 1 m/s 771 mmHg 79%
05:00 +3°C° 0 mm 1 m/s 771 mmHg 79%
06:00 +4°C° 0 mm 1 m/s 771 mmHg 78%
07:00 +5°C° 0 mm 1 m/s 771 mmHg 71%
08:00 +6°C° 0 mm 2 m/s 771 mmHg 64%
09:00 +8°C° 0 mm 2 m/s 771 mmHg 57%
10:00 +8°C° 0 mm 3 m/s 771 mmHg 56%
11:00 +9°C° 0 mm 3 m/s 771 mmHg 55%
12:00 +10°C° 0 mm 4 m/s 770 mmHg 53%
13:00 +10°C° 0 mm 4 m/s 770 mmHg 53%
14:00 +10°C° 0 mm 4 m/s 770 mmHg 53%
15:00 +9°C° 0 mm 5 m/s 770 mmHg 53%
16:00 +8°C° 0 mm 5 m/s 770 mmHg 56%
17:00 +7°C° 0 mm 5 m/s 769 mmHg 59%
18:00 +7°C° 0 mm 5 m/s 769 mmHg 63%
19:00 +5°C° 0 mm 4 m/s 770 mmHg 68%
20:00 +4°C° 0 mm 4 m/s 770 mmHg 73%
21:00 +2°C° 0 mm 3 m/s 770 mmHg 77%
22:00 +2°C° 0 mm 3 m/s 770 mmHg 79%
23:00 +1°C° 0 mm 3 m/s 770 mmHg 81%

16 Abril, Sexta-feira

Tempo Temperatura Precipitação Vento Pressão Humidade
00:00 +2°C° 0 mm 2 m/s 770 mmHg 83%
01:00 +2°C° 0 mm 2 m/s 770 mmHg 84%
02:00 +1°C° 0 mm 2 m/s 770 mmHg 85%
03:00 +1°C° 0 mm 2 m/s 770 mmHg 86%
04:00 +1°C° 0 mm 2 m/s 770 mmHg 85%
05:00 +1°C° 0 mm 2 m/s 770 mmHg 84%
06:00 +2°C° 0 mm 1 m/s 770 mmHg 83%
07:00 +4°C° 0 mm 1 m/s 770 mmHg 75%
08:00 +6°C° 0 mm 1 m/s 770 mmHg 67%
09:00 +8°C° 0 mm 1 m/s 770 mmHg 59%
10:00 +9°C° 0 mm 1 m/s 770 mmHg 55%
11:00 +9°C° 0 mm 2 m/s 770 mmHg 50%
12:00 +10°C° 0 mm 2 m/s 770 mmHg 46%
13:00 +10°C° 0 mm 3 m/s 770 mmHg 47%
14:00 +10°C° 0 mm 4 m/s 769 mmHg 47%
15:00 +10°C° 0 mm 4 m/s 769 mmHg 47%
16:00 +8°C° 0 mm 4 m/s 769 mmHg 52%
17:00 +8°C° 0 mm 4 m/s 769 mmHg 58%
18:00 +7°C° 0 mm 5 m/s 769 mmHg 63%
19:00 +5°C° 0 mm 4 m/s 769 mmHg 67%
20:00 +4°C° 0 mm 4 m/s 769 mmHg 72%
21:00 +2°C° 0 mm 3 m/s 770 mmHg 76%
22:00 +2°C° 0 mm 3 m/s 770 mmHg 76%
23:00 +2°C° 0 mm 3 m/s 769 mmHg 76%

17 Abril, Sábado

Tempo Temperatura Precipitação Vento Pressão Humidade
00:00 +2°C° 0 mm 2 m/s 769 mmHg 77%
01:00 +2°C° 0 mm 2 m/s 769 mmHg 76%
02:00 +2°C° 0 mm 2 m/s 769 mmHg 76%
03:00 +2°C° 0 mm 1 m/s 769 mmHg 75%
04:00 +1°C° 0 mm 2 m/s 769 mmHg 74%
05:00 +2°C° 0 mm 2 m/s 769 mmHg 72%
06:00 +2°C° 0 mm 2 m/s 769 mmHg 70%
07:00 +4°C° 0 mm 2 m/s 768 mmHg 64%
08:00 +5°C° 0 mm 2 m/s 768 mmHg 58%
09:00 +7°C° 0 mm 3 m/s 768 mmHg 52%
10:00 +8°C° 0 mm 3 m/s 768 mmHg 52%
11:00 +8°C° 0 mm 4 m/s 767 mmHg 51%
12:00 +10°C° 0 mm 4 m/s 767 mmHg 50%
13:00 +9°C° 0 mm 5 m/s 766 mmHg 51%
14:00 +9°C° 0 mm 5 m/s 766 mmHg 52%
15:00 +10°C° 0 mm 6 m/s 765 mmHg 52%
16:00 +9°C° 0 mm 6 m/s 765 mmHg 57%
17:00 +8°C° 0 mm 6 m/s 764 mmHg 62%
18:00 +8°C° 0 mm 6 m/s 764 mmHg 67%
19:00 +7°C° 0 mm 5 m/s 764 mmHg 71%
20:00 +6°C° 0 mm 5 m/s 764 mmHg 75%
21:00 +5°C° 0 mm 5 m/s 764 mmHg 79%
22:00 +4°C° 0 mm 4 m/s 764 mmHg 79%
23:00 +4°C° 0 mm 4 m/s 764 mmHg 80%
Mostrar mais